Regional Weather Roundup
Issued by NWS

Home | Current Version | Previous Version | Text Only | Print | Product List | Glossary On
Versions: 1 2 3 4 5 6 7 8 9 10 11 12 13 14 15 16 17 18 19 20 21 22 23 24 25 26 27 28 29 30 31 32 33 34 35 36 37 38 39 40 41 42 43 44 45 46 47 48 49 50
000
ASUS43 KTOP 230059
RWRKS

WEATHER ROUNDUP FOR KANSAS
NATIONAL WEATHER SERVICE GOODLAND KS
800 PM CDT TUE MAY 22 2018

NOTE:  "FAIR" INDICATES FEW OR NO CLOUDS BELOW 12,000 FEET WITH NO
SIGNIFICANT WEATHER AND/OR OBSTRUCTIONS TO VISIBILITY.

KSZ001>006-013>018-027>032-041>047-230200-
NORTHWEST KANSAS

CITY           SKY/WX    TMP DP  RH WIND       PRES   REMARKS
GOODLAND       MOCLDY    75  51  43 S20       29.88S
HAYS           CLEAR     84  61  45 SE17      29.89R
HILL CITY      MOCLDY    82  55  39 S8        29.88S
RUSSELL        CLEAR     84  63  49 SE20G25   29.90R
$$

KSZ061>065-074>080-084>089-230200-
SOUTHWEST KANSAS

CITY           SKY/WX    TMP DP  RH WIND       PRES   REMARKS
DODGE CITY     CLEAR     83  53  35 S17       29.92S
GARDEN CITY    CLOUDY    80  53  39 S13G26    29.90S
GREAT BEND     CLEAR     81  63  54 SE17      29.91S
LIBERAL        PTCLDY    82  54  37 SE18G25   29.90F
$$

KSZ066>073-081>083-090>101-230200-
SOUTHEAST KANSAS

CITY           SKY/WX    TMP DP  RH WIND       PRES   REMARKS
CHANUTE        CLEAR     78  70  76 SE5       29.98S
COFFEYVILLE    CLEAR     82  69  64 E5        29.96S
HUTCHINSON     CLEAR     82  63  52 SE13      29.94R
MEDICINE LODGE   N/A     83  61  47 SE9       29.92R
NEWTON         CLEAR     80  64  58 SE12      29.98
PARSONS        CLEAR     81  69  67 CALM      29.98S
WICHITA INTL   PTCLDY    82  64  54 SE12      29.94S
WICHITA JABRA  CLEAR     81  65  58 SE8       29.96R
WINFIELD       CLEAR     81  67  62 SE6       29.96S
$$

KSZ007>012-019>026-033>040-048>060-102>105-230200-
NORTHEAST KANSAS

CITY           SKY/WX    TMP DP  RH WIND       PRES   REMARKS
CONCORDIA      PTCLDY    83  62  49 S15       29.92R
EMPORIA        PTCLDY    79  67  66 SE8       29.97S
LAWRENCE       CLEAR     81  66  60 SE8       29.97R
MANHATTAN      CLEAR     82  65  56 S10       29.94R
OLATHE IND     CLEAR     80  64  58 SE7       29.99S
OLATHE EXE     CLEAR     78  64  61 SE7       29.99R
SALINA         CLEAR     85  64  49 SE17G24   29.93R
TOPEKA BILLARD CLOUDY    80  68  66 SE6       29.96R
TOPEKA FORBES  CLEAR     82  67  60 SE7       29.97R
$$




USA.gov is the U.S. government's official web portal to all federal, state and local government web resources and services.